RH
43 36 38 39 38 35 38 36 45 36 33 27 23 22 22 22 22 22 19 17 17 19 20 26 34 40 42 45 51 53 56 59 62 61 59 59 61 61 59 60 57 55 58 59
44 37 35 40 33 31 30 29 33 34 31 22 23 20 20 20 21 23 22 20 18 19 19 22 25 34 40 44 49 51 55 57 55 58 59 60 60 62 62 62 60 59 60 59
52 48 45 55 41 30 26 24 29 34 24 25 26 26 29 32 31 25 23 22 21 19 20 22 23 30 36 39 43 50 53 52 53 55 57 60 58 58 60 62 63 65 61 59
63 67 68 28 26 28 33 26 23 23 29 32 34 36 33 33 38 40 37 33 26 22 21 20 22 25 32 31 40 48 48 48 50 53 55 55 58 59 62 62 65 68 70 69
67 50 35 28 24 24 26 23 32 30 32 33 33 35 30 33 36 41 40 38 35 28 23 24 24 23 29 34 36 41 46 47 47 50 55 55 58 63 67 73 81 88 91 97
68 62 66 34 35 36 33 34 31 35 33 34 34 46 36 34 37 38 35 37 40 39 37 31 28 28 29 32 34 40 46 44 45 49 54 58 62 76 95 93 97 98 98 97
71 72 48 32 25 41 50 53 35 33 33 34 38 36 38 39 35 34 36 38 50 53 52 53 52 47 45 38 40 38 40 47 49 53 58 67 93 91 94 96 97 98 98 98
73 75 77 34 40 49 50 40 37 38 38 42 38 39 38 40 40 38 39 43 53 62 78 80 74 61 50 54 76 75 76 82 86 88 94 93 94 96 97 96 97 98 98 97
47 47 40 43 42 35 49 53 49 52 48 48 48 42 39 42 44 45 46 50 55 72 84 87 86 75 77 92 88 90 92 94 95 96 95 94 96 98 97 95 97 97 96 97
44 34 31 28 34 49 51 55 52 49 50 53 59 52 50 52 52 51 51 57 67 77 86 91 87 88 93 91 90 92 95 96 95 96 96 93 91 92 94 96 96 94 94 94
39 33 31 29 41 55 58 54 54 51 51 53 54 54 56 58 60 62 64 64 68 79 84 86 86 87 85 88 90 92 92 92 93 93 93 94 94 93 95 95 91 91 92 91
43 53 60 54 50 60 62 60 58 58 56 53 55 56 58 64 68 64 70 76 77 84 86 83 83 86 86 85 88 91 93 93 95 93 92 89 90 94 95 96 95 93 90 90
62 64 69 67 59 66 66 61 58 57 56 60 60 64 62 73 79 80 75 77 81 84 83 83 87 91 91 91 90 92 91 89 90 90 89 87 86 88 95 96 95 96 96 95
62 69 67 74 88 71 68 60 59 56 57 63 68 79 87 86 85 91 87 78 78 80 83 86 90 97 97 98 97 96 95 96 91 93 94 95 95 95 94 94 95 96 96 93
67 63 70 81 76 76 72 69 69 70 70 72 68 80 83 86 90 88 76 71 73 79 86 84 85 92 91 90 92 95 94 96 96 96 96 96 96 96 95 94 94 93 92 91
62 58 70 84 83 84 86 83 81 83 80 84 85 89 90 83 81 81 82 79 80 86 85 93 91 95 96 95 95 94 95 96 96 96 96 96 95 94 93 91 90 89 88 89
82 73 75 79 76 81 88 89 85 85 88 91 93 92 90 90 89 90 92 92 92 94 94 94 96 96 96 96 95 93 92 93 94 93 93 94 94 93 93 91 90 87 89 92
72 75 73 76 77 80 86 86 86 87 90 91 91 93 94 93 93 93 94 91 89 91 94 95 95 94 94 95 90 86 84 86 86 87 86 89 88 88 89 89 88 86 87 86
67 71 72 73 75 80 82 82 86 87 91 93 92 93 94 93 92 91 86 87 87 88 94 90 85 83 85 89 80 82 86 86 84 85 87 90 90 87 88 87 86 84 80 80
77 76 74 82 82 81 88 91 92 92 93 93 93 93 92 92 92 90 86 92 91 89 86 83 75 76 75 76 73 71 79 81 76 82 84 82 87 88 84 78 78 80 82 81
91 91 92 91 92 92 92 93 91 92 94 93 91 92 92 92 91 86 82 80 87 73 67 68 65 56 53 53 56 74 77 79 80 78 79 82 82 78 80 80 79 79 80 79
92 92 92 92 89 91 92 92 90 92 91 91 92 91 88 88 86 82 81 72 64 65 58 59 63 74 63 65 62 76 71 72 74 75 78 78 79 80 81 79 80 80 79 79
92 92 91 91 91 92 91 90 92 91 91 91 91 89 83 72 66 72 76 68 61 67 60 73 79 76 73 78 78 78 77 76 78 79 80 81 81 81 80 79 79 78 79 78
91 90 91 91 90 86 88 91 88 87 83 81 84 79 68 77 79 64 63 70 75 78 84 84 85 77 73 80 80 80 79 80 80 80 77 75 80 79 78 79 78 78 78 77
91 91 90 90 85 84 83 73 66 65 67 67 69 66 67 65 81 76 76 74 74 69 76 81 82 76 80 81 80 80 80 81 81 79 78 80 79 79 79 78 79 80 80 79
88 83 83 83 72 62 60 59 65 65 64 77 78 83 82 76 72 71 76 72 72 71 76 81 84 79 80 78 78 78 77 74 77 77 77 78 78 77 79 78 80 80 81 82
77 69 64 64 61 64 65 65 72 75 75 81 82 79 76 79 79 70 75 77 77 77 78 80 80 80 78 78 77 76 75 76 88 78 79 80 79 80 81 82 82 82 82 83
Wind_Speed
6 4 4 6 7 6 9 8 10 11 12 12 13 14 15 15 17 17 18 15 11 10 9 10 14 16 17 18 20 20 21 22 23 21 20 20 20 20 20 20 20 21 20 20
9 7 10 13 13 12 12 11 11 11 12 9 7 12 14 16 17 16 17 17 13 11 11 11 12 14 16 18 19 20 21 22 20 20 20 21 20 20 19 20 21 20 19 20
9 3 7 11 17 18 16 12 11 10 7 6 12 13 16 18 20 19 18 19 18 16 12 11 13 12 16 18 17 20 21 19 19 19 20 19 19 20 21 20 18 18 19 19
2 4 7 3 1 4 8 11 10 10 9 9 10 13 16 8 12 16 17 19 19 15 13 13 12 13 14 14 17 18 19 19 19 19 19 18 18 19 18 16 17 15 15 16
5 9 13 15 10 8 7 2 3 6 7 7 9 12 8 8 14 16 18 17 17 17 15 13 11 9 11 13 16 18 19 20 19 19 18 18 18 17 14 11 9 7 5 7
5 6 6 4 3 3 2 4 8 6 9 12 13 8 8 17 17 17 18 17 17 16 15 14 12 8 12 14 14 18 16 17 17 17 17 17 16 10 7 7 5 5 6 5
11 8 4 8 6 4 6 5 11 12 13 13 11 10 13 16 16 16 17 19 17 14 11 12 13 9 11 11 13 13 12 12 13 14 15 10 11 8 10 9 9 8 8 7
10 9 10 3 3 7 8 9 12 13 14 15 15 14 12 12 16 14 17 19 16 13 11 11 13 10 9 2 5 7 7 9 10 9 6 8 13 10 7 10 12 11 10 8
9 8 5 3 3 8 8 9 11 11 15 16 15 13 12 9 11 12 15 17 16 11 10 13 15 11 2 3 6 8 8 8 10 10 9 6 10 10 13 8 8 8 9 9
9 8 12 5 3 8 11 10 11 12 12 15 15 14 8 9 12 10 11 14 16 14 12 12 13 15 11 7 6 9 10 10 8 10 10 9 6 7 8 9 8 8 9 9
13 12 10 13 6 10 12 10 10 12 11 12 13 11 11 8 11 12 13 14 13 13 12 12 11 13 14 13 9 10 9 10 10 9 10 11 11 7 6 7 6 9 9 10
8 8 5 9 10 10 12 13 12 12 13 11 11 11 9 8 9 11 13 14 12 13 15 14 9 13 14 14 12 8 8 8 8 8 8 9 10 12 22 24 23 21 19 14
5 9 8 10 12 6 10 13 11 9 9 10 9 10 8 6 8 13 15 13 12 13 13 13 13 14 12 11 14 14 10 9 8 10 8 8 8 10 14 20 28 26 25 24
7 10 8 6 8 10 10 11 8 6 7 9 9 8 8 7 11 14 14 10 11 12 13 13 16 18 14 12 14 12 13 16 9 9 10 9 9 8 10 10 13 12 18 18
8 7 7 8 6 8 8 8 7 9 9 10 10 10 10 9 11 15 10 10 13 15 15 16 16 16 14 15 13 14 12 11 9 10 10 11 11 9 11 11 11 12 11 15
12 6 5 5 6 7 8 9 8 8 9 10 10 11 12 11 14 15 15 14 14 15 15 15 15 14 13 12 13 12 13 17 14 10 9 9 9 10 10 10 11 9 9 8
10 5 8 5 6 8 10 8 7 8 10 11 12 10 11 11 13 14 15 14 15 16 15 15 14 13 14 14 13 11 10 12 15 11 10 10 10 9 9 9 10 9 9 9
3 4 5 4 6 7 10 8 10 12 12 13 12 11 11 11 14 13 12 13 15 18 18 16 14 14 15 14 14 12 11 11 11 11 11 11 10 10 10 10 9 9 8 9
6 7 8 9 10 10 10 10 12 13 12 11 13 13 13 13 13 14 14 15 16 17 16 15 18 17 17 17 13 11 11 11 11 11 11 12 11 10 9 9 9 9 8 8
10 10 12 13 13 12 12 12 12 13 11 11 11 12 14 13 12 14 16 19 16 12 14 14 15 15 15 15 14 11 11 12 12 11 10 10 10 9 10 11 9 8 7 7
12 13 14 13 14 14 13 11 12 13 12 12 14 13 14 14 13 11 13 12 14 13 13 16 14 11 10 11 11 11 11 11 10 10 9 9 9 9 8 8 7 6 6 6
10 11 12 12 13 14 13 12 13 12 12 12 12 11 12 13 13 15 14 12 9 14 11 11 11 15 12 14 10 11 11 11 9 8 9 8 8 7 7 7 6 6 5 5
10 11 12 12 13 13 13 13 12 12 13 13 13 13 12 10 9 8 9 12 9 12 10 10 13 14 14 10 9 10 10 10 9 9 8 8 7 7 6 6 5 5 5 5
10 11 11 10 10 11 13 11 11 12 12 12 12 10 8 7 9 8 8 10 11 12 11 10 11 13 11 8 8 8 8 8 8 7 7 7 5 5 5 5 5 4 4 4
9 9 9 8 9 8 9 9 9 10 10 11 11 11 12 10 8 7 7 7 11 9 8 11 11 10 8 8 7 7 7 7 6 5 5 5 4 4 4 4 4 5 5 5
8 7 8 10 8 6 6 5 6 6 6 7 7 7 7 7 7 6 7 7 7 8 7 6 6 6 6 6 6 6 6 5 5 5 4 4 4 4 4 5 5 5 5 5
7 6 6 7 7 7 6 6 5 6 6 6 7 6 6 6 6 6 6 6 6 6 6 5 5 6 5 5 5 5 5 4 4 5 4 4 3 4 5 5 5 4 4 4
Wind_Direction
259 263 256 272 264 249 243 256 259 280 277 275 276 278 286 302 305 298 298 297 292 272 241 215 210 209 210 208 204 203 205 207 213 213 214 215 217 218 219 218 219 220 219 220
252 264 266 265 262 262 260 259 256 247 261 267 289 302 295 289 286 292 294 297 298 284 256 234 220 216 211 211 205 201 206 212 211 210 213 215 215 215 218 218 220 221 223 223
247 282 273 262 241 242 247 240 242 260 336 337 303 310 310 315 309 303 298 301 302 302 292 270 243 221 215 210 202 203 207 210 208 208 211 213 213 213 215 218 216 219 223 223
239 233 239 40 318 263 266 266 272 301 326 321 309 310 304 355 345 328 322 309 302 299 300 292 268 243 228 215 205 204 211 211 205 202 206 207 209 212 213 213 219 217 220 224
234 228 282 287 269 244 227 182 42 354 359 347 331 301 263 355 345 331 326 315 293 292 292 293 288 270 236 218 209 207 211 211 207 204 199 200 206 209 207 208 199 202 198 184
190 241 236 35 128 323 275 200 36 3 346 338 329 334 331 333 334 324 324 324 315 306 301 291 291 278 250 232 218 218 217 211 205 200 201 200 199 184 145 156 138 106 93 90
223 249 269 274 276 318 242 63 340 339 330 332 312 314 311 319 319 329 326 328 328 320 322 328 317 296 257 236 227 230 219 212 204 197 201 169 128 138 134 118 107 95 86 74
229 235 249 272 235 242 14 337 330 325 325 318 311 300 304 314 320 338 338 339 341 348 354 354 338 301 266 186 58 87 117 123 118 119 115 132 128 119 115 127 121 116 104 84
203 206 96 72 315 354 1 335 336 335 329 324 314 299 304 320 339 1 360 349 346 0 11 16 360 346 350 72 109 119 117 109 108 98 89 97 118 130 117 115 111 119 112 109
253 234 248 317 348 352 350 349 346 342 331 336 341 329 331 338 348 357 18 7 347 353 8 22 17 12 13 30 66 90 95 93 77 88 91 85 89 103 115 117 123 122 118 114
254 260 282 285 17 349 333 342 347 344 350 351 343 340 333 355 3 354 16 10 0 358 3 9 23 23 15 13 39 80 78 78 80 77 75 74 57 52 73 82 120 134 124 122
256 22 335 307 327 349 328 337 349 343 349 359 1 349 351 29 14 14 32 13 5 5 14 353 15 45 29 24 27 36 75 79 78 82 81 81 80 77 65 78 83 92 101 108
347 343 313 297 305 3 334 332 344 350 2 350 9 360 6 43 49 56 33 23 15 22 26 6 8 37 38 51 56 37 36 55 80 81 78 86 93 95 96 79 82 88 96 101
15 343 298 53 340 355 350 334 335 357 17 16 9 22 26 28 57 53 47 21 30 29 32 22 27 30 18 38 59 66 69 50 45 71 85 76 71 73 85 85 94 87 78 92
2 337 311 305 31 18 6 355 14 23 13 34 37 37 33 38 57 61 42 46 48 43 31 34 31 27 27 47 55 64 69 64 62 67 64 82 86 76 78 80 84 90 90 79
320 324 11 52 42 35 29 30 47 44 47 47 50 47 59 49 62 62 58 48 53 49 41 36 32 25 24 42 59 60 62 66 71 66 72 69 75 83 85 93 91 91 91 97
335 328 344 13 35 47 52 46 60 65 64 62 54 46 59 62 62 60 59 54 52 50 44 40 35 27 36 39 52 63 62 61 64 65 60 61 66 72 79 84 85 82 75 64
4 6 14 36 62 74 72 68 71 71 69 69 68 66 56 55 63 59 56 58 58 52 41 36 38 39 41 37 46 54 58 61 61 62 65 67 70 73 79 83 85 89 86 71
48 62 68 71 74 81 81 80 79 82 80 80 80 73 69 64 63 60 57 55 52 49 36 37 44 46 45 41 53 56 61 63 64 66 66 68 67 68 74 78 80 75 71 66
73 74 76 76 75 82 84 78 82 76 74 79 81 77 71 63 61 64 61 59 48 43 36 32 44 44 46 44 49 56 62 66 67 63 58 66 68 71 71 61 64 67 65 66
75 74 73 76 78 78 77 81 84 80 76 76 80 75 71 58 45 53 62 56 36 35 41 44 36 40 44 45 52 54 57 60 61 61 62 68 69 62 62 63 61 60 62 60
81 81 81 82 82 78 73 75 76 77 75 71 70 75 77 73 68 64 50 52 45 37 43 42 40 36 42 48 51 54 56 58 58 58 61 59 61 65 60 60 56 57 60 53
82 83 81 79 81 82 78 73 72 73 73 71 72 71 66 58 45 54 57 36 45 42 51 45 37 41 47 51 54 57 58 59 58 57 57 55 57 58 58 48 50 43 37 27
85 83 82 81 84 83 80 75 78 81 81 77 64 52 63 75 69 64 75 67 55 51 44 34 34 40 47 53 53 52 52 53 53 54 65 55 57 57 50 42 33 24 15 5
76 78 80 85 86 85 91 91 88 83 80 74 68 65 60 51 62 56 57 59 41 41 48 40 36 42 47 51 49 50 52 46 30 46 48 49 47 40 31 32 10 1 344 341
71 71 68 62 66 69 70 72 77 80 92 86 73 68 67 66 68 67 64 49 44 41 39 41 29 42 50 44 48 37 34 34 37 39 25 29 26 19 8 356 345 342 340 335
76 81 89 77 62 56 52 62 83 79 71 80 84 73 71 70 64 58 48 41 40 34 35 32 37 28 26 13 24 21 12 20 30 357 3 3 354 352 346 332 327 324 317 310